EHI
0 0 0 0 0 0 0 0 0 0 0 0 0 0 0 0 0 0 0 0 0 0 0 0 0 0 0 0 0 0 0 0 0 0 0 0 0 0 0 0 0 0 0 0
0 0 0 0 0 0 0 0 0 0 0 0 0 0 0 0 0 0 0 0 0 0 0 0 0 0 0 0 0 0 0 0 0 0 0 0 0 0 0 0 0 0 0 0
0 0 0 0 0 0 0 0 0 0 0 0 0 0 0 0 0 0 0 0 0 0 0 0 0 0 0 0 0 0 0 0 0 0 0 0 0 0 0 0 0 0 0 0
0 0 0 0 0 0 0 0 0 0 0 0 0 0 0 0 0 0 0 0 0 0 0 0 0 0 0 0 0 0 0 0 0 0 0 0 0 0 0 0 0 0 0 0
0 0 0 0 0 0 0 0 0 0 0 0 0 0 0 0 0 0 0 0 0 0 0 0 0 0 0 0 0 0 0 0 0 0 0 0 0 0 0 0 0 0 0 0
0 0 0 0 0 0 0 0 0 0 0 0 0 0 0 0 0 0 0 0 0 0 0 0 0 0 0 0 0 0 0 0 0 0 0 0 0 0 0 0 0 0 0 0
0 0 0 0 0 0 0 0 0 0 0 0 0 0 0 0 0 0 0 0 0 0 0 0 0 0 0 0 0 0 0 0 0 0 0 0 0 0 0 0 0 0 0 0
0 0 0 0 0 0 0 0 0 0 0 0 0 0 0 0 0 0 0 0 0 0 0 0 0 0 0 0 0 0 0 0 0 0 0 0 0 0 0 0 0 0 0 0
0 0 0 0 0 0 0 0 0 0 0 0 0 0 0 0 0 0 0 0 0 0 0 0 0 0 0 0 0 0 0 0 0 0 0 0 0 0 0 0 0 0 0 0
0 0 0 0 0 0 0 0 0 0 0 0 0 0 0 0 0 0 0 0 0 0 0 0 0 0 0 0 0 0 0 0 0 0 0 0 0 0 0 0 0 0 0 0
0 0 0 0 0 0 0 0 0 0 0 0 0 0 0 0 0 0 0 0 0 0 0 0 0 0 0 0 0 0 0 0 0 0 0 0 0 0 0 0 0 0 0 0
0 0 0 0 0 0 0 0 0 0 0 0 0 0 0 0 0 0 0 0 0 0 0 0 0 0 0 0 0 0 0 0 0 0 0 0 0 0 0 0 0 0 0 0
0 0 0 0 0 0 0 0 0 0 0 0 0 0 0 0 0 0 0 0 0 0 0 0 0 0 0 0 0 0 0 0 0 0 0 0 0 0 0 0 0 0 0 0
0 0 0 0 0 0 0 0 0 0 0 0 0 0 0 0 0 0 0 0 0 0 0 0 0 0 0 0 0 0 0 0 0 0 0 0 0 0 0 0 0 0 0 0
0 0 0 0 0 0 0 0 0 0 0 0 0 0 0 0 0 0 0 0 0 0 0 0 0 0 0 0 0 0 0 0 0 0 0 0 0 0 0 0 0 0 0 0
0 0 0 0 0 0 0 0 0 0 0 0 0 0 0 0 0 0 0 0 0 0 0 0 0 0 0 0 0 0 0 0 0 0 0 0 0 0 0 0 0 0 0 0
0 0 0 0 0 0 0 0 0 0 0 0 0 0 0 0 0 0 0 0 0 0 0 0 0 0 0 0 0 0 0 0 0 0 0 0 0 0 0 0 0 0 0 0
0 0 0 0 0 0 0 0 0 0 0 0 0 0 0 0 0 0 0 0 0 0 0 0 0 0 0 0 0 0 0 0 0 0 0 0 0 0 0 0 0 0 0 0
0 0 0 0 0 0 0 0 0 0 0 0 0 0 0 0 0 0 0 0 0 0 0 0 0 0 0 0 0 0 0 0 0 0 0 0 0 0 0 0 0 0 0 0
0 0 0 0 0 0 0 0 0 0 0 0 0 0 0 0 0 0 0 0 0 0 0 0 0 0 0 0 0 0 0 0 0 0 0 0 0 0 0 0 0 0 0 0
0 0 0 0 0 0 0 0 0 0 0 0 0 0 0 0 0 0 0 0 0 0 0 0 0 0 0 0 0 0 0 0 0 0 0 0 0 0 0 0 0 0 0 0
0 0 0 0 0 0 0 0 0 0 0 0 0 0 0 0 0 0 0 0 0 0 0 0 0 0 0 0 0 0 0 0 0 0 0 0 0 0 0 0 0 0 0 0
0 0 0 0 0 0 0 0 0 0 0 0 0 0 0 0 0 0 0 0 0 0 0 0 0 0 0 0 0 0 0 0 0 0 0 0 0 0 0 0 0 0 0 0
0 0 0 0 0 0 0 0 0 0 0 0 0 0 0 0 0 0 0 0 0 0 0 0 0 0 0 0 0 0 0 0 0 0 0 0 0 0 0 0 0 0 0 0
0 0 0 0 0 0 0 0 0 0 0 0 0 0 0 0 0 0 0 0 0 0 0 0 0 0 0 0 0 0 0 0 0 0 0 0 0 0 0 0 0 0 0 0
0 0 0 0 0 0 0 0 0 0 0 0 0 0 0 0 0 0 0 0 0 0 0 0 0 0 0 0 0 0 0 0 0 0 0 0 0 0 0 0 0 0 0 0
Wind_Speed
2 3 2 2 3 3 3 4 3 1 0 4 4 3 1 1 2 2 2 2 2 2 1 1 3 5 5 5 5 5 5 4 3 2 2 2 1 1 2 2 3 3 3 3
4 0 2 5 4 4 4 4 3 2 2 3 5 3 2 2 1 2 4 3 3 2 1 2 3 4 5 5 5 5 5 4 3 2 2 2 1 1 1 2 3 3 3 3
3 2 3 5 5 4 3 4 4 3 3 4 5 4 1 1 1 1 1 2 2 4 3 3 3 3 4 4 5 5 4 4 3 3 3 3 3 3 3 3 3 4 4 3
1 2 4 5 4 5 2 3 5 4 4 2 2 1 2 1 1 0 1 1 2 2 3 3 3 3 4 4 4 5 5 4 3 3 3 3 2 1 1 1 2 3 4 4
2 3 5 5 4 5 4 4 3 3 4 3 2 3 4 1 3 4 3 2 2 2 4 4 4 4 3 4 5 5 5 4 3 3 4 4 3 1 1 1 3 3 3 4
1 1 2 3 3 5 6 5 5 4 3 1 2 3 4 5 7 5 4 3 2 3 3 3 3 4 4 4 5 5 6 4 3 4 4 4 4 2 2 3 3 3 3 3
2 1 1 3 5 4 4 5 3 1 1 3 2 2 7 5 5 6 7 5 3 3 4 4 4 4 4 5 5 5 6 4 3 4 3 3 3 3 2 1 1 2 2 2
2 1 2 3 5 6 4 5 6 5 5 2 0 4 6 2 2 4 5 5 4 4 3 4 4 4 5 5 5 5 6 4 3 3 3 2 2 2 1 1 0 1 1 2
4 2 0 2 3 8 5 3 3 6 3 2 3 4 5 1 3 4 6 6 5 5 4 4 4 4 4 5 5 5 6 5 4 4 3 3 2 2 2 1 1 1 1 2
5 3 1 2 4 3 4 6 4 5 5 2 2 4 5 6 7 6 7 7 6 5 5 4 4 4 4 4 4 5 5 5 4 3 3 3 2 2 2 2 2 2 2 3
3 4 1 2 5 7 4 3 3 4 4 6 3 7 7 10 11 11 10 9 8 7 6 5 4 4 4 4 5 5 5 5 4 3 3 3 2 2 2 2 2 2 2 3
4 5 2 3 3 5 5 6 6 5 3 4 3 7 3 7 9 10 9 8 7 6 5 5 5 5 5 5 4 5 4 4 3 3 4 3 3 3 3 2 2 2 3 3
6 5 3 2 2 2 3 4 4 5 5 4 4 7 2 2 6 8 9 9 7 7 6 5 5 5 5 5 4 4 4 4 3 4 4 4 3 3 2 2 2 3 3 3
6 4 6 7 7 6 4 5 6 6 5 5 7 6 4 4 7 8 9 9 8 8 7 7 6 5 5 5 5 5 4 3 4 4 4 4 2 2 2 2 2 3 3 3
5 4 4 4 3 4 5 6 8 7 8 8 8 8 10 10 11 10 10 10 10 9 8 9 8 6 6 5 5 4 4 3 4 5 4 2 2 2 2 3 3 3 3 3
3 3 2 2 3 4 4 6 9 8 6 6 4 8 7 4 6 8 10 13 12 12 11 10 9 8 8 7 6 5 5 4 4 5 4 3 3 3 3 2 3 3 3 3
4 5 4 2 1 1 5 8 10 7 7 9 10 11 5 6 12 15 15 15 15 13 12 11 11 9 9 8 8 7 6 5 5 5 4 3 3 3 2 2 3 3 2 3
8 6 4 2 2 5 9 4 6 7 8 9 7 6 10 11 9 8 10 14 14 13 12 11 10 9 7 7 7 7 6 6 5 4 4 3 3 3 2 2 2 2 1 2
5 8 5 4 3 6 9 4 7 7 8 8 9 7 5 5 5 2 7 11 13 13 11 10 9 9 8 8 8 8 6 6 5 4 4 3 3 3 2 2 1 0 1 1
4 5 6 4 4 6 9 4 3 4 6 6 9 9 9 10 5 8 9 10 9 9 9 9 9 8 9 8 9 9 7 6 5 5 4 3 3 3 3 2 1 0 0 0
3 3 4 5 5 9 9 2 6 5 9 5 9 11 14 12 9 5 10 10 10 9 9 11 11 9 9 9 10 9 7 7 6 5 4 3 3 3 3 2 1 1 0 1
8 6 6 5 4 10 4 6 9 9 3 3 7 10 12 8 4 7 10 11 11 10 10 11 11 9 7 9 10 9 8 6 5 5 4 3 3 2 2 2 1 1 1 0
7 9 8 10 9 6 3 7 5 2 3 4 6 7 9 7 6 7 8 10 11 11 11 10 10 9 7 8 9 10 7 6 6 5 4 3 2 2 2 2 1 1 0 0
4 2 4 4 8 6 5 5 4 4 4 3 5 6 9 8 7 8 9 9 9 10 10 9 11 10 8 7 7 7 7 7 7 6 4 3 3 2 1 1 2 2 2 2
5 5 3 5 7 6 5 5 5 3 3 2 3 5 8 9 8 9 9 10 10 9 9 10 11 11 10 8 7 6 7 8 7 6 4 4 3 3 2 2 2 3 4 4
5 8 7 7 6 5 5 3 2 3 4 5 5 4 5 8 9 9 9 8 9 9 8 9 9 9 9 8 8 7 7 8 7 5 4 3 3 3 2 2 2 4 5 7
Wind_Direction
48 83 137 163 146 134 134 119 112 120 88 103 107 90 53 92 137 156 177 177 193 226 245 118 130 133 127 126 126 128 117 114 108 96 93 85 58 17 9 5 12 17 20 26
57 10 191 138 134 121 116 107 97 57 56 97 93 67 49 62 172 188 188 186 183 173 99 98 114 121 133 140 137 131 128 125 118 110 113 113 111 63 360 347 4 13 14 12
157 220 167 134 128 119 120 147 157 140 79 60 83 33 15 351 23 82 131 165 173 165 160 143 124 126 130 139 147 141 131 125 120 108 92 72 53 32 15 6 358 356 3 12
196 228 161 141 151 142 163 177 164 140 108 56 90 137 270 272 309 213 211 175 191 169 157 151 142 137 142 151 140 131 127 119 111 109 104 102 91 67 339 325 336 347 5 12
205 174 158 157 170 154 159 129 112 110 109 77 41 126 267 224 231 230 222 200 189 176 165 162 157 144 132 131 130 126 118 108 104 102 107 101 92 86 5 4 9 5 1 7
235 191 156 150 118 129 126 92 64 47 76 124 217 159 248 220 211 201 196 186 177 167 147 139 120 110 104 108 118 123 117 106 103 101 99 105 106 92 59 30 15 1 353 355
19 18 40 124 109 90 110 112 99 68 40 239 222 190 241 236 211 188 181 179 167 152 143 135 123 124 123 122 125 128 125 118 110 104 99 104 109 103 90 54 19 6 358 352
145 220 200 177 161 151 172 164 158 168 186 236 217 229 254 273 193 150 149 151 145 145 146 141 141 141 139 134 130 132 131 127 120 114 109 96 98 98 86 67 56 357 318 311
162 211 240 170 132 130 145 171 156 121 115 112 262 281 303 135 131 140 144 147 160 163 156 147 140 137 140 139 142 143 136 126 122 120 109 95 89 91 82 54 43 6 333 336
148 146 205 161 90 50 150 145 116 124 137 179 267 253 230 204 193 180 170 173 174 163 153 147 146 144 143 139 129 122 123 124 121 120 115 106 95 86 79 66 39 13 358 358
144 137 129 144 178 177 145 141 129 117 144 151 204 256 221 196 187 185 188 184 176 170 165 159 150 140 131 119 119 117 116 113 109 111 109 97 83 75 72 60 25 10 10 11
151 121 153 231 231 181 174 174 155 152 187 170 171 263 268 197 186 180 179 176 172 164 157 152 143 132 125 123 122 121 121 119 121 119 109 98 84 75 67 47 23 28 26 18
147 121 101 29 344 208 194 177 166 131 121 154 171 260 322 163 169 176 170 169 167 159 153 146 139 140 142 139 134 128 127 126 121 113 104 92 79 76 68 48 34 36 36 29
131 131 163 187 205 188 192 183 164 140 156 189 216 240 268 193 181 179 174 169 166 166 163 157 155 156 155 150 145 137 131 129 124 113 105 98 91 89 76 57 46 39 42 41
132 167 200 225 219 190 205 194 180 186 188 188 218 219 233 207 192 183 171 164 164 171 172 171 168 166 161 154 149 142 136 131 126 116 111 116 108 88 72 58 46 43 43 41
133 160 166 251 229 210 228 216 197 206 202 211 224 248 239 182 151 162 172 173 178 182 181 177 172 169 169 166 159 149 144 143 130 122 123 117 98 80 67 53 47 45 35 27
149 141 139 241 282 84 256 222 197 201 199 183 207 229 180 167 182 186 184 184 187 184 180 179 178 177 175 171 162 159 155 143 131 127 123 115 108 92 71 65 60 47 31 33
144 136 139 149 111 228 244 239 193 203 222 206 215 213 188 193 193 189 183 184 186 182 180 180 175 172 168 161 153 146 141 139 135 132 131 128 121 110 91 79 68 45 40 38
140 136 128 137 189 272 289 255 182 185 245 214 207 211 182 125 93 234 202 191 188 182 177 173 169 163 158 156 151 140 139 139 138 145 150 151 142 132 117 105 90 64 59 27
79 108 122 137 167 232 250 250 168 131 267 233 190 187 160 135 161 231 196 179 174 165 160 156 150 145 153 157 149 143 147 148 160 169 168 161 154 149 151 163 167 158 123 332
112 103 142 164 203 254 251 229 125 165 239 218 181 176 168 182 200 187 157 167 165 158 155 151 150 156 163 157 150 149 154 171 176 163 152 151 158 164 166 158 156 150 108 17
171 165 181 154 188 250 234 148 180 215 236 182 180 179 183 193 156 140 155 159 156 153 151 153 154 157 156 156 153 155 172 177 157 148 148 155 164 168 146 141 142 135 120 35
192 187 184 188 210 237 211 210 231 213 215 206 186 185 175 169 170 158 158 159 160 159 158 156 155 152 156 165 162 165 179 163 152 149 159 168 165 166 157 159 171 180 180 212
248 167 161 238 263 259 256 255 258 227 224 219 187 171 165 170 165 160 159 160 160 160 160 156 152 157 167 174 174 173 164 158 153 160 172 175 174 188 193 189 189 191 213 230
219 165 186 247 271 294 283 244 240 232 219 192 162 168 169 162 163 165 165 167 166 162 160 161 165 169 174 172 176 173 163 157 160 168 177 182 187 192 208 224 219 216 224 211
195 178 179 223 229 204 255 278 233 205 211 189 164 157 163 167 169 164 168 168 164 162 159 162 166 168 170 171 177 178 170 164 164 173 185 189 191 196 200 221 278 263 249 263